Time,TemperatureF,DewpointF,PressureIn,WindDirection,WindDirectionDegrees,WindSpeedMPH,WindSpeedGustMPH,Humidity,HourlyPrecipIn,Conditions,Clouds,dailyrainin,SoftwareType,DateUTC
2013-12-25 00:11:00,19.3,9.8,30.52,NW,318,3.0,16.0,66,0.00,,CLR,0.00,VWS V13.01,2013-12-25 05:11:00,
2013-12-25 00:26:00,19.1,9.6,30.53,North,1,7.0,14.0,66,0.00,,CLR,0.00,VWS V13.01,2013-12-25 05:26:00,
2013-12-25 00:41:00,18.9,9.8,30.54,NNW,327,4.0,16.0,67,0.00,,CLR,0.00,VWS V13.01,2013-12-25 05:41:00,
2013-12-25 00:51:00,18.6,9.5,30.53,North,359,9.0,9.0,67,0.00,,CLR,0.00,VWS V13.01,2013-12-25 05:51:00,
2013-12-25 00:53:00,18.6,9.5,30.53,NNW,343,5.0,10.0,67,0.00,,CLR,0.00,VWS V13.01,2013-12-25 05:53:00,
2013-12-25 00:55:00,18.6,9.5,30.53,NNW,331,4.0,10.0,67,0.00,,CLR,0.00,VWS V13.01,2013-12-25 05:55:00,
2013-12-25 01:00:00,18.5,9.4,30.53,North,351,2.0,6.0,67,0.00,,CLR,0.00,VWS V13.01,2013-12-25 06:00:00,
2013-12-25 01:05:00,18.5,9.4,30.53,NW,322,2.0,7.0,67,0.00,,CLR,0.00,VWS V13.01,2013-12-25 06:05:00,
2013-12-25 01:10:00,18.4,9.3,30.53,NW,321,4.0,7.0,67,0.00,,CLR,0.00,VWS V13.01,2013-12-25 06:10:00,
2013-12-25 01:16:00,18.4,9.3,30.53,NNW,332,1.0,5.0,67,0.00,,CLR,0.00,VWS V13.01,2013-12-25 06:16:00,
2013-12-25 01:21:00,18.3,9.5,30.53,NW,308,5.0,6.0,68,0.00,,CLR,0.00,VWS V13.01,2013-12-25 06:21:00,
2013-12-25 01:26:00,18.3,9.5,30.53,NW,322,1.0,2.0,68,0.00,,CLR,0.00,VWS V13.01,2013-12-25 06:26:00,
2013-12-25 01:31:00,18.2,9.4,30.53,NW,322,2.0,3.0,68,0.00,,CLR,0.00,VWS V13.01,2013-12-25 06:31:00,
2013-12-25 01:36:00,18.0,9.2,30.53,NW,326,4.0,4.0,68,0.00,,CLR,0.00,VWS V13.01,2013-12-25 06:36:00,
2013-12-25 01:42:00,18.0,9.2,30.54,NW,309,1.0,3.0,68,0.00,,CLR,0.00,VWS V13.01,2013-12-25 06:42:00,
2013-12-25 01:47:00,18.0,9.2,30.54,WNW,303,1.0,4.0,68,0.00,,CLR,0.00,VWS V13.01,2013-12-25 06:47:00,
2013-12-25 01:52:00,17.9,9.1,30.55,WNW,303,2.0,4.0,68,0.00,,CLR,0.00,VWS V13.01,2013-12-25 06:52:00,
2013-12-25 01:57:00,17.8,9.4,30.55,WNW,297,3.0,4.0,69,0.00,,CLR,0.00,VWS V13.01,2013-12-25 06:57:00,
2013-12-25 02:03:00,17.7,9.3,30.55,NW,312,4.0,5.0,69,0.00,,CLR,0.00,VWS V13.01,2013-12-25 07:03:00,
2013-12-25 02:08:00,17.6,9.5,30.55,NW,312,3.0,5.0,70,0.00,,CLR,0.00,VWS V13.01,2013-12-25 07:08:00,
2013-12-25 02:13:00,17.5,9.4,30.55,West,275,2.0,3.0,70,0.00,,CLR,0.00,VWS V13.01,2013-12-25 07:13:00,
2013-12-25 02:18:00,17.5,9.4,30.55,West,273,4.0,4.0,70,0.00,,CLR,0.00,VWS V13.01,2013-12-25 07:18:00,
2013-12-25 02:20:00,17.4,9.3,30.56,West,280,2.0,5.0,70,0.00,,CLR,0.00,VWS V13.01,2013-12-25 07:20:00,
2013-12-25 02:25:00,17.3,9.5,30.56,WNW,286,6.0,6.0,71,0.00,,CLR,0.00,VWS V13.01,2013-12-25 07:25:00,
2013-12-25 02:30:00,17.2,9.7,30.56,West,272,5.0,10.0,72,0.00,,CLR,0.00,VWS V13.01,2013-12-25 07:30:00,
2013-12-25 02:36:00,17.2,9.7,30.56,West,266,6.0,10.0,72,0.00,,CLR,0.00,VWS V13.01,2013-12-25 07:36:00,
2013-12-25 02:41:00,17.2,9.7,30.56,West,265,3.0,10.0,72,0.00,,CLR,0.00,VWS V13.01,2013-12-25 07:41:00,
2013-12-25 02:46:00,17.3,9.8,30.56,WNW,303,6.0,12.0,72,0.00,,CLR,0.00,VWS V13.01,2013-12-25 07:46:00,
2013-12-25 02:52:00,17.2,9.7,30.56,West,274,3.0,12.0,72,0.00,,CLR,0.00,VWS V13.01,2013-12-25 07:52:00,
2013-12-25 02:57:00,17.3,9.5,30.56,WSW,241,4.0,6.0,71,0.00,,CLR,0.00,VWS V13.01,2013-12-25 07:57:00,
2013-12-25 03:02:00,17.3,9.5,30.56,WNW,303,9.0,9.0,71,0.00,,CLR,0.00,VWS V13.01,2013-12-25 08:02:00,
2013-12-25 03:07:00,17.3,9.5,30.56,NNW,330,6.0,11.0,71,0.00,,CLR,0.00,VWS V13.01,2013-12-25 08:07:00,
2013-12-25 03:12:00,17.3,9.5,30.56,West,266,2.0,4.0,71,0.00,,CLR,0.00,VWS V13.01,2013-12-25 08:12:00,
2013-12-25 03:18:00,17.3,9.5,30.56,West,266,0.0,6.0,71,0.00,,CLR,0.00,VWS V13.01,2013-12-25 08:18:00,
2013-12-25 03:23:00,17.2,9.4,30.56,WNW,301,4.0,7.0,71,0.00,,CLR,0.00,VWS V13.01,2013-12-25 08:23:00,
2013-12-25 03:28:00,17.1,9.3,30.55,NNW,341,3.0,6.0,71,0.00,,CLR,0.00,VWS V13.01,2013-12-25 08:28:00,
2013-12-25 03:33:00,17.1,9.6,30.56,NNW,330,2.0,6.0,72,0.00,,CLR,0.00,VWS V13.01,2013-12-25 08:33:00,
2013-12-25 03:38:00,17.0,9.2,30.56,NW,318,5.0,6.0,71,0.00,,CLR,0.00,VWS V13.01,2013-12-25 08:38:00,
2013-12-25 03:43:00,17.2,9.4,30.55,NNW,331,5.0,11.0,71,0.00,,CLR,0.00,VWS V13.01,2013-12-25 08:43:00,
2013-12-25 03:48:00,17.3,9.5,30.55,NW,305,4.0,11.0,71,0.00,,CLR,0.00,VWS V13.01,2013-12-25 08:48:00,
2013-12-25 03:53:00,17.4,9.6,30.55,NNW,343,1.0,11.0,71,0.00,,CLR,0.00,VWS V13.01,2013-12-25 08:53:00,
2013-12-25 03:58:00,17.5,9.7,30.55,NNW,338,0.0,5.0,71,0.00,,CLR,0.00,VWS V13.01,2013-12-25 08:58:00,
2013-12-25 04:04:00,17.5,9.7,30.56,West,273,2.0,5.0,71,0.00,,CLR,0.00,VWS V13.01,2013-12-25 09:04:00,
2013-12-25 04:09:00,17.6,10.1,30.56,West,279,5.0,7.0,72,0.00,,CLR,0.00,VWS V13.01,2013-12-25 09:09:00,
2013-12-25 04:14:00,17.7,9.9,30.55,NW,307,2.0,7.0,71,0.00,,CLR,0.00,VWS V13.01,2013-12-25 09:14:00,
2013-12-25 04:19:00,17.8,10.0,30.55,WNW,303,2.0,7.0,71,0.00,,CLR,0.00,VWS V13.01,2013-12-25 09:19:00,
2013-12-25 04:25:00,17.8,10.0,30.55,NW,306,4.0,7.0,71,0.00,,CLR,0.00,VWS V13.01,2013-12-25 09:25:00,
2013-12-25 04:30:00,17.9,10.1,30.55,NW,322,2.0,3.0,71,0.00,,CLR,0.00,VWS V13.01,2013-12-25 09:30:00,
2013-12-25 04:35:00,17.9,10.1,30.56,NW,304,6.0,6.0,71,0.00,,CLR,0.00,VWS V13.01,2013-12-25 09:35:00,
2013-12-25 04:40:00,18.0,10.2,30.55,NNW,333,3.0,8.0,71,0.00,,CLR,0.00,VWS V13.01,2013-12-25 09:40:00,
2013-12-25 04:46:00,18.1,10.3,30.55,NW,316,3.0,7.0,71,0.00,,CLR,0.00,VWS V13.01,2013-12-25 09:46:00,
2013-12-25 04:51:00,18.1,10.3,30.55,NW,314,2.0,7.0,71,0.00,,CLR,0.00,VWS V13.01,2013-12-25 09:51:00,
2013-12-25 04:56:00,18.2,10.4,30.54,WNW,289,4.0,7.0,71,0.00,,CLR,0.00,VWS V13.01,2013-12-25 09:56:00,
2013-12-25 05:01:00,18.3,10.5,30.55,NW,311,1.0,4.0,71,0.00,,CLR,0.00,VWS V13.01,2013-12-25 10:01:00,
2013-12-25 05:06:00,18.4,10.6,30.55,WNW,297,5.0,8.0,71,0.00,,CLR,0.00,VWS V13.01,2013-12-25 10:06:00,
2013-12-25 05:11:00,18.5,10.4,30.56,NW,307,5.0,6.0,70,0.00,,CLR,0.00,VWS V13.01,2013-12-25 10:11:00,
2013-12-25 05:16:00,18.6,10.1,30.56,NW,315,6.0,8.0,69,0.00,,CLR,0.00,VWS V13.01,2013-12-25 10:16:00,
2013-12-25 05:22:00,18.6,10.1,30.56,West,262,3.0,8.0,69,0.00,,CLR,0.00,VWS V13.01,2013-12-25 10:22:00,
2013-12-25 05:27:00,18.6,10.1,30.56,NW,321,2.0,6.0,69,0.00,,CLR,0.00,VWS V13.01,2013-12-25 10:27:00,
2013-12-25 05:32:00,18.6,10.1,30.56,NW,318,1.0,6.0,69,0.00,,CLR,0.00,VWS V13.01,2013-12-25 10:32:00,
2013-12-25 05:37:00,18.6,10.5,30.56,NNW,328,4.0,6.0,70,0.00,,CLR,0.00,VWS V13.01,2013-12-25 10:37:00,
2013-12-25 05:42:00,18.4,9.9,30.56,NW,311,2.0,3.0,69,0.00,,CLR,0.00,VWS V13.01,2013-12-25 10:42:00,
2013-12-25 05:48:00,18.3,10.2,30.56,NW,320,4.0,7.0,70,0.00,,CLR,0.00,VWS V13.01,2013-12-25 10:48:00,
2013-12-25 05:53:00,18.3,10.2,30.56,NNW,344,1.0,9.0,70,0.00,,CLR,0.00,VWS V13.01,2013-12-25 10:53:00,
2013-12-25 05:58:00,18.3,10.2,30.57,NW,312,3.0,5.0,70,0.00,,CLR,0.00,VWS V13.01,2013-12-25 10:58:00,
2013-12-25 06:03:00,18.3,10.2,30.57,NNW,337,2.0,7.0,70,0.00,,CLR,0.00,VWS V13.01,2013-12-25 11:03:00,
2013-12-25 06:08:00,18.4,10.6,30.58,NNW,327,2.0,7.0,71,0.00,,CLR,0.00,VWS V13.01,2013-12-25 11:08:00,
2013-12-25 06:13:00,18.4,10.6,30.58,NNW,336,0.0,4.0,71,0.00,,CLR,0.00,VWS V13.01,2013-12-25 11:13:00,
2013-12-25 06:19:00,18.4,10.6,30.57,NNW,346,5.0,5.0,71,0.00,,CLR,0.00,VWS V13.01,2013-12-25 11:19:00,
2013-12-25 06:24:00,18.4,10.3,30.57,NNW,344,1.0,6.0,70,0.00,,CLR,0.00,VWS V13.01,2013-12-25 11:24:00,
2013-12-25 06:29:00,18.4,10.6,30.57,NNW,344,0.0,1.0,71,0.00,,CLR,0.00,VWS V13.01,2013-12-25 11:29:00,
2013-12-25 06:34:00,18.3,10.2,30.57,NNW,341,1.0,2.0,70,0.00,,CLR,0.00,VWS V13.01,2013-12-25 11:34:00,
2013-12-25 06:39:00,18.4,10.6,30.57,NNW,338,0.0,3.0,71,0.00,,CLR,0.00,VWS V13.01,2013-12-25 11:39:00,
2013-12-25 06:44:00,18.3,10.5,30.57,NNW,337,0.0,3.0,71,0.00,,CLR,0.00,VWS V13.01,2013-12-25 11:44:00,
2013-12-25 06:49:00,18.3,10.5,30.57,NW,311,1.0,3.0,71,0.00,,CLR,0.00,VWS V13.01,2013-12-25 11:49:00,
2013-12-25 06:54:00,18.3,10.5,30.58,NNW,332,2.0,4.0,71,0.00,,CLR,0.00,VWS V13.01,2013-12-25 11:54:00,
2013-12-25 06:59:00,18.2,10.7,30.58,NNW,330,0.0,1.0,72,0.00,,CLR,0.00,VWS V13.01,2013-12-25 11:59:00,
2013-12-25 07:04:00,18.2,10.7,30.59,NW,324,2.0,3.0,72,0.00,,CLR,0.00,VWS V13.01,2013-12-25 12:04:00,
2013-12-25 07:09:00,18.2,10.7,30.58,NW,326,4.0,4.0,72,0.00,,CLR,0.00,VWS V13.01,2013-12-25 12:09:00,
2013-12-25 07:14:00,18.2,10.4,30.58,NNW,338,0.0,4.0,71,0.00,,CLR,0.00,VWS V13.01,2013-12-25 12:14:00,
2013-12-25 07:19:00,18.2,10.7,30.58,NW,309,2.0,4.0,72,0.00,,CLR,0.00,VWS V13.01,2013-12-25 12:19:00,
2013-12-25 07:24:00,18.1,10.3,30.58,WNW,298,4.0,4.0,71,0.00,,CLR,0.00,VWS V13.01,2013-12-25 12:24:00,
2013-12-25 07:29:00,18.1,10.6,30.58,WNW,297,3.0,6.0,72,0.00,,CLR,0.00,VWS V13.01,2013-12-25 12:29:00,
2013-12-25 07:34:00,18.1,10.6,30.58,North,7,2.0,6.0,72,0.00,,CLR,0.00,VWS V13.01,2013-12-25 12:34:00,
2013-12-25 07:40:00,18.2,10.7,30.57,NW,315,3.0,6.0,72,0.00,,CLR,0.00,VWS V13.01,2013-12-25 12:40:00,
2013-12-25 07:45:00,18.1,10.6,30.58,NW,319,0.0,4.0,72,0.00,,CLR,0.00,VWS V13.01,2013-12-25 12:45:00,
2013-12-25 07:50:00,18.2,11.0,30.59,NW,319,0.0,4.0,73,0.00,,CLR,0.00,VWS V13.01,2013-12-25 12:50:00,
2013-12-25 07:55:00,18.3,10.8,30.58,NNW,329,3.0,4.0,72,0.00,,CLR,0.00,VWS V13.01,2013-12-25 12:55:00,
2013-12-25 08:01:00,18.3,10.8,30.58,NNW,330,2.0,4.0,72,0.00,,CLR,0.00,VWS V13.01,2013-12-25 13:01:00,
2013-12-25 08:06:00,18.4,10.9,30.58,NNW,336,0.0,4.0,72,0.00,,CLR,0.00,VWS V13.01,2013-12-25 13:06:00,
2013-12-25 08:11:00,18.4,10.9,30.59,NNW,335,0.0,4.0,72,0.00,,CLR,0.00,VWS V13.01,2013-12-25 13:11:00,
2013-12-25 08:16:00,18.4,10.9,30.59,NNW,335,0.0,3.0,72,0.00,,CLR,0.00,VWS V13.01,2013-12-25 13:16:00,
2013-12-25 08:21:00,18.4,10.9,30.59,NNW,335,2.0,3.0,72,0.00,,CLR,0.00,VWS V13.01,2013-12-25 13:21:00,
2013-12-25 08:26:00,18.4,10.9,30.59,NNW,336,0.0,3.0,72,0.00,,CLR,0.00,VWS V13.01,2013-12-25 13:26:00,
2013-12-25 08:31:00,18.5,11.3,30.59,NNW,336,0.0,0.0,73,0.00,,CLR,0.00,VWS V13.01,2013-12-25 13:31:00,
2013-12-25 08:36:00,18.6,11.4,30.59,NNW,335,2.0,2.0,73,0.00,,CLR,0.00,VWS V13.01,2013-12-25 13:36:00,
2013-12-25 08:41:00,18.7,11.2,30.60,NNW,335,0.0,2.0,72,0.00,,CLR,0.00,VWS V13.01,2013-12-25 13:41:00,
2013-12-25 08:46:00,18.6,11.4,30.60,NNW,333,3.0,3.0,73,0.00,,CLR,0.00,VWS V13.01,2013-12-25 13:46:00,
2013-12-25 08:51:00,18.6,11.1,30.59,NNW,333,0.0,3.0,72,0.00,,CLR,0.00,VWS V13.01,2013-12-25 13:51:00,
2013-12-25 08:57:00,18.8,11.0,30.60,NNW,333,1.0,2.0,71,0.00,,CLR,0.00,VWS V13.01,2013-12-25 13:57:00,
2013-12-25 09:02:00,19.0,10.8,30.61,NNW,329,1.0,3.0,70,0.00,,CLR,0.00,VWS V13.01,2013-12-25 14:02:00,
2013-12-25 09:07:00,19.2,11.7,30.61,NNW,328,1.0,3.0,72,0.00,,CLR,0.00,VWS V13.01,2013-12-25 14:07:00,
2013-12-25 09:12:00,19.3,10.8,30.61,NW,322,3.0,4.0,69,0.00,,CLR,0.00,VWS V13.01,2013-12-25 14:12:00,
2013-12-25 09:17:00,19.6,11.1,30.61,NNW,334,3.0,7.0,69,0.00,,CLR,0.00,VWS V13.01,2013-12-25 14:17:00,
2013-12-25 09:23:00,19.7,10.9,30.61,NNW,340,6.0,7.0,68,0.00,,CLR,0.00,VWS V13.01,2013-12-25 14:23:00,
2013-12-25 09:28:00,19.8,11.0,30.61,West,266,0.0,3.0,68,0.00,,CLR,0.00,VWS V13.01,2013-12-25 14:28:00,
2013-12-25 09:33:00,20.1,11.2,30.60,NW,324,2.0,3.0,68,0.00,,CLR,0.00,VWS V13.01,2013-12-25 14:33:00,
2013-12-25 09:38:00,20.4,11.5,30.59,North,5,3.0,4.0,68,0.00,,CLR,0.00,VWS V13.01,2013-12-25 14:38:00,
2013-12-25 09:43:00,20.4,10.9,30.59,NNW,335,3.0,4.0,66,0.00,,CLR,0.00,VWS V13.01,2013-12-25 14:43:00,
2013-12-25 09:49:00,20.3,10.8,30.60,East,87,2.0,4.0,66,0.00,,CLR,0.00,VWS V13.01,2013-12-25 14:49:00,
2013-12-25 09:54:00,20.3,10.8,30.60,NNW,329,1.0,5.0,66,0.00,,CLR,0.00,VWS V13.01,2013-12-25 14:54:00,
2013-12-25 09:59:00,20.5,11.0,30.60,ENE,75,2.0,5.0,66,0.00,,CLR,0.00,VWS V13.01,2013-12-25 14:59:00,
2013-12-25 10:05:00,20.9,11.7,30.59,South,191,3.0,5.0,67,0.00,,CLR,0.00,VWS V13.01,2013-12-25 15:05:00,
2013-12-25 10:10:00,21.7,12.1,30.59,SSW,199,1.0,5.0,66,0.00,,CLR,0.00,VWS V13.01,2013-12-25 15:10:00,
2013-12-25 10:15:00,21.8,11.9,30.59,WSW,246,1.0,2.0,65,0.00,,CLR,0.00,VWS V13.01,2013-12-25 15:15:00,
2013-12-25 10:20:00,22.1,12.1,30.59,West,268,0.0,2.0,65,0.00,,CLR,0.00,VWS V13.01,2013-12-25 15:20:00,
2013-12-25 10:25:00,22.7,12.4,30.59,WSW,251,1.0,6.0,64,0.00,,CLR,0.00,VWS V13.01,2013-12-25 15:25:00,
2013-12-25 10:31:00,22.4,11.7,30.59,WSW,252,0.0,3.0,63,0.00,,CLR,0.00,VWS V13.01,2013-12-25 15:31:00,
2013-12-25 10:36:00,22.0,11.0,30.59,WNW,301,3.0,6.0,62,0.00,,CLR,0.00,VWS V13.01,2013-12-25 15:36:00,
2013-12-25 10:41:00,22.1,12.1,30.58,ESE,120,3.0,6.0,65,0.00,,CLR,0.00,VWS V13.01,2013-12-25 15:41:00,
2013-12-25 10:46:00,23.0,12.6,30.58,SSW,193,1.0,5.0,64,0.00,,CLR,0.00,VWS V13.01,2013-12-25 15:46:00,
2013-12-25 10:52:00,23.3,12.6,30.58,WNW,301,1.0,5.0,63,0.00,,CLR,0.00,VWS V13.01,2013-12-25 15:52:00,
2013-12-25 10:57:00,23.5,13.1,30.58,NW,311,0.0,1.0,64,0.00,,CLR,0.00,VWS V13.01,2013-12-25 15:57:00,
2013-12-25 11:02:00,24.0,13.2,30.57,East,100,2.0,3.0,63,0.00,,CLR,0.00,VWS V13.01,2013-12-25 16:02:00,
2013-12-25 11:07:00,24.2,13.1,30.57,East,94,2.0,4.0,62,0.00,,CLR,0.00,VWS V13.01,2013-12-25 16:07:00,
2013-12-25 11:13:00,24.4,13.6,30.57,SSE,161,0.0,3.0,63,0.00,,CLR,0.00,VWS V13.01,2013-12-25 16:13:00,
2013-12-25 11:18:00,25.0,13.5,30.57,SSW,197,2.0,5.0,61,0.00,,CLR,0.00,VWS V13.01,2013-12-25 16:18:00,
2013-12-25 11:24:00,25.4,13.5,30.57,South,187,1.0,5.0,60,0.00,,CLR,0.00,VWS V13.01,2013-12-25 16:24:00,
2013-12-25 11:29:00,25.8,12.7,30.57,SW,226,1.0,4.0,57,0.00,,CLR,0.00,VWS V13.01,2013-12-25 16:29:00,
2013-12-25 11:35:00,25.8,13.5,30.56,WSW,247,1.0,4.0,59,0.00,,CLR,0.00,VWS V13.01,2013-12-25 16:35:00,
2013-12-25 11:40:00,26.2,13.4,30.56,SSE,147,1.0,5.0,58,0.00,,CLR,0.00,VWS V13.01,2013-12-25 16:40:00,
2013-12-25 11:45:00,26.9,14.1,30.56,SSW,192,5.0,6.0,58,0.00,,CLR,0.00,VWS V13.01,2013-12-25 16:45:00,
2013-12-25 11:50:00,27.2,14.0,30.55,SE,131,4.0,8.0,57,0.00,,CLR,0.00,VWS V13.01,2013-12-25 16:50:00,
2013-12-25 11:55:00,26.4,13.6,30.55,SSE,161,4.0,8.0,58,0.00,,CLR,0.00,VWS V13.01,2013-12-25 16:55:00,
2013-12-25 12:00:00,27.0,14.6,30.55,WSW,250,1.0,9.0,59,0.00,,CLR,0.00,VWS V13.01,2013-12-25 17:00:00,
2013-12-25 12:05:00,27.7,14.9,30.54,SW,219,1.0,9.0,58,0.00,,CLR,0.00,VWS V13.01,2013-12-25 17:05:00,
2013-12-25 12:10:00,28.4,15.1,30.54,SSE,147,1.0,10.0,57,0.00,,CLR,0.00,VWS V13.01,2013-12-25 17:10:00,
2013-12-25 12:16:00,27.9,13.4,30.53,WSW,242,0.0,6.0,54,0.00,,CLR,0.00,VWS V13.01,2013-12-25 17:16:00,
2013-12-25 12:21:00,28.0,13.5,30.52,SSW,210,6.0,9.0,54,0.00,,CLR,0.00,VWS V13.01,2013-12-25 17:21:00,
2013-12-25 12:26:00,27.8,14.2,30.52,SSE,166,2.0,2.0,56,0.00,,CLR,0.00,VWS V13.01,2013-12-25 17:26:00,
2013-12-25 12:31:00,28.6,14.5,30.51,SSE,151,6.0,6.0,55,0.00,,CLR,0.00,VWS V13.01,2013-12-25 17:31:00,
2013-12-25 12:37:00,29.3,15.1,30.51,SW,222,3.0,9.0,55,0.00,,CLR,0.00,VWS V13.01,2013-12-25 17:37:00,
2013-12-25 12:42:00,29.2,14.2,30.51,South,171,1.0,4.0,53,0.00,,CLR,0.00,VWS V13.01,2013-12-25 17:42:00,
2013-12-25 12:48:00,29.4,14.8,30.50,SE,136,2.0,4.0,54,0.00,,CLR,0.00,VWS V13.01,2013-12-25 17:48:00,
2013-12-25 12:53:00,29.2,14.6,30.50,SSW,195,0.0,5.0,54,0.00,,CLR,0.00,VWS V13.01,2013-12-25 17:53:00,
2013-12-25 12:58:00,30.1,15.5,30.50,SSW,196,3.0,6.0,54,0.00,,CLR,0.00,VWS V13.01,2013-12-25 17:58:00,
2013-12-25 13:03:00,29.8,14.3,30.50,SW,225,1.0,8.0,52,0.00,,CLR,0.00,VWS V13.01,2013-12-25 18:03:00,
2013-12-25 13:08:00,29.2,14.2,30.50,SE,125,3.0,8.0,53,0.00,,CLR,0.00,VWS V13.01,2013-12-25 18:08:00,
2013-12-25 13:13:00,28.9,14.4,30.50,SSW,197,1.0,4.0,54,0.00,,CLR,0.00,VWS V13.01,2013-12-25 18:13:00,
2013-12-25 13:18:00,30.8,16.1,30.50,SE,141,4.0,6.0,54,0.00,,CLR,0.00,VWS V13.01,2013-12-25 18:18:00,
2013-12-25 13:23:00,31.2,15.6,30.49,SW,231,3.0,10.0,52,0.00,,CLR,0.00,VWS V13.01,2013-12-25 18:23:00,
2013-12-25 13:28:00,31.4,16.3,30.49,SW,215,2.0,4.0,53,0.00,,CLR,0.00,VWS V13.01,2013-12-25 18:28:00,
2013-12-25 13:33:00,31.6,16.5,30.48,SSW,209,4.0,9.0,53,0.00,,CLR,0.00,VWS V13.01,2013-12-25 18:33:00,
2013-12-25 13:38:00,31.3,15.7,30.48,SSE,156,2.0,12.0,52,0.00,,CLR,0.00,VWS V13.01,2013-12-25 18:38:00,
2013-12-25 13:44:00,30.9,15.8,30.49,WSW,237,4.0,10.0,53,0.00,,CLR,0.00,VWS V13.01,2013-12-25 18:44:00,
2013-12-25 13:49:00,31.4,16.7,30.48,SE,138,0.0,10.0,54,0.00,,CLR,0.00,VWS V13.01,2013-12-25 18:49:00,
2013-12-25 13:55:00,32.1,16.5,30.48,South,179,2.0,10.0,52,0.00,,CLR,0.00,VWS V13.01,2013-12-25 18:55:00,
2013-12-25 14:00:00,31.7,15.7,30.48,SW,231,6.0,11.0,51,0.00,,CLR,0.00,VWS V13.01,2013-12-25 19:00:00,
2013-12-25 14:05:00,31.9,16.3,30.47,SSE,161,2.0,11.0,52,0.00,,CLR,0.00,VWS V13.01,2013-12-25 19:05:00,
2013-12-25 14:10:00,32.2,16.1,30.47,SW,220,5.0,11.0,51,0.00,,CLR,0.00,VWS V13.01,2013-12-25 19:10:00,
2013-12-25 14:15:00,31.7,15.7,30.47,SSE,156,5.0,10.0,51,0.00,,CLR,0.00,VWS V13.01,2013-12-25 19:15:00,
2013-12-25 14:21:00,31.6,16.9,30.47,South,183,3.0,10.0,54,0.00,,CLR,0.00,VWS V13.01,2013-12-25 19:21:00,
2013-12-25 14:26:00,32.5,16.9,30.47,SSW,212,8.0,8.0,52,0.00,,CLR,0.00,VWS V13.01,2013-12-25 19:26:00,
2013-12-25 14:31:00,31.9,16.3,30.47,SW,218,2.0,11.0,52,0.00,,CLR,0.00,VWS V13.01,2013-12-25 19:31:00,
2013-12-25 14:37:00,32.1,16.9,30.46,SSE,149,1.0,13.0,53,0.00,,CLR,0.00,VWS V13.01,2013-12-25 19:37:00,
2013-12-25 14:42:00,32.3,16.7,30.47,SSW,209,5.0,9.0,52,0.00,,CLR,0.00,VWS V13.01,2013-12-25 19:42:00,
2013-12-25 14:45:00,32.1,16.5,30.46,SSE,147,8.0,10.0,52,0.00,,CLR,0.00,VWS V13.01,2013-12-25 19:45:00,
2013-12-25 14:50:00,32.2,17.0,30.46,SW,221,6.0,10.0,53,0.00,,CLR,0.00,VWS V13.01,2013-12-25 19:50:00,
2013-12-25 14:55:00,33.0,17.8,30.46,SSW,205,3.0,10.0,53,0.00,,CLR,0.00,VWS V13.01,2013-12-25 19:55:00,
2013-12-25 15:00:00,32.9,17.2,30.46,ESE,118,3.0,13.0,52,0.00,,CLR,0.00,VWS V13.01,2013-12-25 20:00:00,
2013-12-25 15:06:00,32.7,16.6,30.46,SSE,166,5.0,13.0,51,0.00,,CLR,0.00,VWS V13.01,2013-12-25 20:06:00,
2013-12-25 15:11:00,32.6,16.5,30.45,SE,145,4.0,13.0,51,0.00,,CLR,0.00,VWS V13.01,2013-12-25 20:11:00,
2013-12-25 15:16:00,32.6,16.9,30.45,SW,216,3.0,6.0,52,0.00,,CLR,0.00,VWS V13.01,2013-12-25 20:16:00,
2013-12-25 15:21:00,33.1,17.0,30.45,SE,140,3.0,9.0,51,0.00,,CLR,0.00,VWS V13.01,2013-12-25 20:21:00,
2013-12-25 15:26:00,32.5,16.9,30.45,SSE,156,3.0,10.0,52,0.00,,CLR,0.00,VWS V13.01,2013-12-25 20:26:00,
2013-12-25 15:32:00,31.5,16.4,30.45,ESE,113,7.0,7.0,53,0.00,,CLR,0.00,VWS V13.01,2013-12-25 20:32:00,
2013-12-25 15:37:00,31.1,16.4,30.45,SE,141,6.0,10.0,54,0.00,,CLR,0.00,VWS V13.01,2013-12-25 20:37:00,
2013-12-25 15:42:00,31.5,16.8,30.45,SSW,211,1.0,7.0,54,0.00,,CLR,0.00,VWS V13.01,2013-12-25 20:42:00,
2013-12-25 15:47:00,31.8,16.6,30.45,SSE,156,6.0,7.0,53,0.00,,CLR,0.00,VWS V13.01,2013-12-25 20:47:00,
2013-12-25 15:52:00,31.2,16.1,30.45,South,183,2.0,13.0,53,0.00,,CLR,0.00,VWS V13.01,2013-12-25 20:52:00,
2013-12-25 15:58:00,31.1,16.0,30.45,SSE,156,7.0,11.0,53,0.00,,CLR,0.00,VWS V13.01,2013-12-25 20:58:00,
2013-12-25 16:03:00,31.3,16.2,30.45,SSE,152,5.0,11.0,53,0.00,,CLR,0.00,VWS V13.01,2013-12-25 21:03:00,
2013-12-25 16:09:00,31.3,16.2,30.45,SSE,166,5.0,11.0,53,0.00,,CLR,0.00,VWS V13.01,2013-12-25 21:09:00,
2013-12-25 16:14:00,31.0,15.9,30.45,SSE,156,2.0,10.0,53,0.00,,CLR,0.00,VWS V13.01,2013-12-25 21:14:00,
2013-12-25 16:20:00,30.6,16.4,30.45,ESE,122,4.0,10.0,55,0.00,,CLR,0.00,VWS V13.01,2013-12-25 21:20:00,
2013-12-25 16:25:00,30.4,16.2,30.44,ESE,123,5.0,10.0,55,0.00,,CLR,0.00,VWS V13.01,2013-12-25 21:25:00,
2013-12-25 16:31:00,30.1,15.9,30.45,SSE,149,3.0,9.0,55,0.00,,CLR,0.00,VWS V13.01,2013-12-25 21:31:00,
2013-12-25 16:36:00,30.0,16.2,30.44,SE,139,3.0,9.0,56,0.00,,CLR,0.00,VWS V13.01,2013-12-25 21:36:00,
2013-12-25 16:41:00,29.8,16.0,30.44,SE,129,4.0,9.0,56,0.00,,CLR,0.00,VWS V13.01,2013-12-25 21:41:00,
2013-12-25 16:46:00,29.6,15.4,30.44,SSE,161,5.0,7.0,55,0.00,,CLR,0.00,VWS V13.01,2013-12-25 21:46:00,
2013-12-25 16:51:00,29.4,15.7,30.44,SE,124,4.0,7.0,56,0.00,,CLR,0.00,VWS V13.01,2013-12-25 21:51:00,
2013-12-25 16:56:00,29.3,15.6,30.44,SE,128,3.0,7.0,56,0.00,,CLR,0.00,VWS V13.01,2013-12-25 21:56:00,
2013-12-25 17:01:00,29.1,15.4,30.44,SE,134,3.0,10.0,56,0.00,,CLR,0.00,VWS V13.01,2013-12-25 22:01:00,
2013-12-25 17:06:00,29.0,15.3,30.44,ESE,118,3.0,10.0,56,0.00,,CLR,0.00,VWS V13.01,2013-12-25 22:06:00,
2013-12-25 17:11:00,28.9,15.2,30.44,SE,131,2.0,10.0,56,0.00,,CLR,0.00,VWS V13.01,2013-12-25 22:11:00,
2013-12-25 17:17:00,28.8,15.5,30.44,SE,124,3.0,4.0,57,0.00,,CLR,0.00,VWS V13.01,2013-12-25 22:17:00,
2013-12-25 17:22:00,28.7,15.4,30.44,SE,139,2.0,4.0,57,0.00,,CLR,0.00,VWS V13.01,2013-12-25 22:22:00,
2013-12-25 17:27:00,28.6,15.3,30.44,SE,137,1.0,4.0,57,0.00,,CLR,0.00,VWS V13.01,2013-12-25 22:27:00,
2013-12-25 17:32:00,28.6,15.3,30.44,ESE,114,2.0,4.0,57,0.00,,CLR,0.00,VWS V13.01,2013-12-25 22:32:00,
2013-12-25 17:39:00,28.5,15.2,30.45,SSE,156,1.0,4.0,57,0.00,,CLR,0.00,VWS V13.01,2013-12-25 22:39:00,
2013-12-25 17:44:00,28.5,15.2,30.45,SE,124,3.0,4.0,57,0.00,,CLR,0.00,VWS V13.01,2013-12-25 22:44:00,
2013-12-25 17:49:00,28.4,15.5,30.44,ESE,122,3.0,4.0,58,0.00,,CLR,0.00,VWS V13.01,2013-12-25 22:49:00,
2013-12-25 17:54:00,28.3,15.4,30.44,South,182,5.0,9.0,58,0.00,,CLR,0.00,VWS V13.01,2013-12-25 22:54:00,
2013-12-25 18:00:00,28.3,15.0,30.44,ESE,112,5.0,8.0,57,0.00,,CLR,0.00,VWS V13.01,2013-12-25 23:00:00,
2013-12-25 18:05:00,28.3,15.0,30.44,SE,125,3.0,8.0,57,0.00,,CLR,0.00,VWS V13.01,2013-12-25 23:05:00,
2013-12-25 18:10:00,28.3,15.4,30.44,SE,127,3.0,8.0,58,0.00,,CLR,0.00,VWS V13.01,2013-12-25 23:10:00,
2013-12-25 18:15:00,28.3,15.4,30.44,SSE,166,4.0,8.0,58,0.00,,CLR,0.00,VWS V13.01,2013-12-25 23:15:00,
2013-12-25 18:20:00,28.2,15.3,30.44,South,172,3.0,11.0,58,0.00,,CLR,0.00,VWS V13.01,2013-12-25 23:20:00,
2013-12-25 18:26:00,28.2,15.3,30.44,SSE,156,3.0,11.0,58,0.00,,CLR,0.00,VWS V13.01,2013-12-25 23:26:00,
2013-12-25 18:31:00,28.1,15.6,30.44,SE,134,4.0,5.0,59,0.00,,CLR,0.00,VWS V13.01,2013-12-25 23:31:00,
2013-12-25 18:36:00,28.0,15.5,30.44,ESE,123,3.0,9.0,59,0.00,,CLR,0.00,VWS V13.01,2013-12-25 23:36:00,
2013-12-25 18:41:00,27.9,15.4,30.44,SSW,196,4.0,10.0,59,0.00,,CLR,0.00,VWS V13.01,2013-12-25 23:41:00,
2013-12-25 18:46:00,27.9,15.4,30.44,SSE,149,3.0,7.0,59,0.00,,CLR,0.00,VWS V13.01,2013-12-25 23:46:00,
2013-12-25 18:51:00,27.8,15.4,30.43,SE,136,3.0,8.0,59,0.00,,CLR,0.00,VWS V13.01,2013-12-25 23:51:00,
2013-12-25 18:56:00,27.7,15.6,30.43,South,178,7.0,10.0,60,0.00,,CLR,0.00,VWS V13.01,2013-12-25 23:56:00,
2013-12-25 19:02:00,27.6,15.6,30.43,SSW,199,4.0,11.0,60,0.00,,CLR,0.00,VWS V13.01,2013-12-26 00:02:00,
2013-12-25 19:07:00,27.6,15.6,30.43,SSE,156,3.0,11.0,60,0.00,,CLR,0.00,VWS V13.01,2013-12-26 00:07:00,
2013-12-25 19:12:00,27.5,15.4,30.43,West,262,2.0,7.0,60,0.00,,CLR,0.00,VWS V13.01,2013-12-26 00:12:00,
2013-12-25 19:17:00,27.4,15.4,30.43,South,184,3.0,11.0,60,0.00,,CLR,0.00,VWS V13.01,2013-12-26 00:17:00,
2013-12-25 19:22:00,27.4,15.4,30.43,SE,138,3.0,11.0,60,0.00,,CLR,0.00,VWS V13.01,2013-12-26 00:22:00,
2013-12-25 19:27:00,27.4,15.4,30.43,South,174,0.0,3.0,60,0.00,,CLR,0.00,VWS V13.01,2013-12-26 00:27:00,
2013-12-25 19:33:00,27.4,15.7,30.42,SE,135,5.0,7.0,61,0.00,,CLR,0.00,VWS V13.01,2013-12-26 00:33:00,
2013-12-25 19:38:00,27.4,15.4,30.42,SSE,166,3.0,7.0,60,0.00,,CLR,0.00,VWS V13.01,2013-12-26 00:38:00,
2013-12-25 19:43:00,27.4,15.7,30.42,SSW,197,0.0,1.0,61,0.00,,CLR,0.00,VWS V13.01,2013-12-26 00:43:00,
2013-12-25 19:48:00,27.4,15.7,30.42,SSW,207,3.0,5.0,61,0.00,,CLR,0.00,VWS V13.01,2013-12-26 00:48:00,
2013-12-25 19:53:00,27.3,15.6,30.42,South,176,3.0,6.0,61,0.00,,CLR,0.00,VWS V13.01,2013-12-26 00:53:00,
2013-12-25 19:58:00,27.3,15.6,30.42,SE,130,0.0,4.0,61,0.00,,CLR,0.00,VWS V13.01,2013-12-26 00:58:00,
2013-12-25 20:03:00,27.2,15.9,30.42,South,173,0.0,4.0,62,0.00,,CLR,0.00,VWS V13.01,2013-12-26 01:03:00,
2013-12-25 20:09:00,27.2,15.9,30.42,SSW,208,1.0,4.0,62,0.00,,CLR,0.00,VWS V13.01,2013-12-26 01:09:00,
2013-12-25 20:14:00,27.2,15.9,30.42,SSW,207,3.0,3.0,62,0.00,,CLR,0.00,VWS V13.01,2013-12-26 01:14:00,
2013-12-25 20:19:00,27.2,15.9,30.42,South,176,3.0,5.0,62,0.00,,CLR,0.00,VWS V13.01,2013-12-26 01:19:00,
2013-12-25 20:24:00,27.2,15.9,30.42,SSW,195,1.0,5.0,62,0.00,,CLR,0.00,VWS V13.01,2013-12-26 01:24:00,
2013-12-25 20:29:00,27.2,15.9,30.42,SSE,166,0.0,3.0,62,0.00,,CLR,0.00,VWS V13.01,2013-12-26 01:29:00,
2013-12-25 20:34:00,27.2,15.9,30.42,SW,219,2.0,3.0,62,0.00,,CLR,0.00,VWS V13.01,2013-12-26 01:34:00,
2013-12-25 20:39:00,27.2,16.3,30.42,WSW,243,0.0,3.0,63,0.00,,CLR,0.00,VWS V13.01,2013-12-26 01:39:00,
2013-12-25 20:44:00,27.2,16.3,30.42,WSW,243,2.0,2.0,63,0.00,,CLR,0.00,VWS V13.01,2013-12-26 01:44:00,
2013-12-25 20:49:00,27.1,16.2,30.42,SE,129,3.0,4.0,63,0.00,,CLR,0.00,VWS V13.01,2013-12-26 01:49:00,
2013-12-25 20:55:00,27.2,16.6,30.41,SE,129,0.0,4.0,64,0.00,,CLR,0.00,VWS V13.01,2013-12-26 01:55:00,
2013-12-25 21:00:00,27.2,16.3,30.41,SSW,207,3.0,3.0,63,0.00,,CLR,0.00,VWS V13.01,2013-12-26 02:00:00,
2013-12-25 21:06:00,27.2,16.3,30.41,SSW,198,0.0,3.0,63,0.00,,CLR,0.00,VWS V13.01,2013-12-26 02:06:00,
2013-12-25 21:11:00,27.1,16.2,30.40,SSE,156,0.0,5.0,63,0.00,,CLR,0.00,VWS V13.01,2013-12-26 02:11:00,
2013-12-25 21:17:00,27.1,16.2,30.40,South,171,3.0,6.0,63,0.00,,CLR,0.00,VWS V13.01,2013-12-26 02:17:00,
2013-12-25 21:22:00,27.0,16.1,30.40,SSW,197,1.0,6.0,63,0.00,,CLR,0.00,VWS V13.01,2013-12-26 02:22:00,
2013-12-25 21:27:00,27.0,16.1,30.40,SSW,198,2.0,2.0,63,0.00,,CLR,0.00,VWS V13.01,2013-12-26 02:27:00,
2013-12-25 21:32:00,27.0,16.5,30.40,SSW,205,1.0,6.0,64,0.00,,CLR,0.00,VWS V13.01,2013-12-26 02:32:00,
2013-12-25 21:38:00,27.0,16.1,30.40,SSW,195,1.0,6.0,63,0.00,,CLR,0.00,VWS V13.01,2013-12-26 02:38:00,
2013-12-25 21:43:00,27.0,16.1,30.40,South,191,1.0,7.0,63,0.00,,CLR,0.00,VWS V13.01,2013-12-26 02:43:00,
2013-12-25 21:48:00,27.0,16.1,30.40,SE,143,1.0,7.0,63,0.00,,CLR,0.00,VWS V13.01,2013-12-26 02:48:00,
2013-12-25 21:53:00,27.0,16.1,30.40,South,181,4.0,7.0,63,0.00,,CLR,0.00,VWS V13.01,2013-12-26 02:53:00,
2013-12-25 21:58:00,27.0,16.1,30.39,SE,131,1.0,5.0,63,0.00,,CLR,0.00,VWS V13.01,2013-12-26 02:58:00,
2013-12-25 22:03:00,27.0,16.1,30.39,South,189,2.0,6.0,63,0.00,,CLR,0.00,VWS V13.01,2013-12-26 03:03:00,
2013-12-25 22:08:00,27.0,16.1,30.39,South,185,0.0,6.0,63,0.00,,CLR,0.00,VWS V13.01,2013-12-26 03:08:00,
2013-12-25 22:13:00,27.0,16.1,30.38,South,178,3.0,4.0,63,0.00,,CLR,0.00,VWS V13.01,2013-12-26 03:13:00,
2013-12-25 22:18:00,27.0,16.1,30.38,East,97,0.0,4.0,63,0.00,,CLR,0.00,VWS V13.01,2013-12-26 03:18:00,
2013-12-25 22:24:00,26.9,16.4,30.38,SSW,206,3.0,4.0,64,0.00,,CLR,0.00,VWS V13.01,2013-12-26 03:24:00,
2013-12-25 22:29:00,26.9,16.4,30.38,South,184,4.0,6.0,64,0.00,,CLR,0.00,VWS V13.01,2013-12-26 03:29:00,
2013-12-25 22:34:00,26.8,16.3,30.38,South,174,3.0,6.0,64,0.00,,CLR,0.00,VWS V13.01,2013-12-26 03:34:00,
2013-12-25 22:39:00,26.8,16.3,30.37,SSW,210,0.0,7.0,64,0.00,,CLR,0.00,VWS V13.01,2013-12-26 03:39:00,
2013-12-25 22:44:00,26.7,16.2,30.38,SSW,199,4.0,7.0,64,0.00,,CLR,0.00,VWS V13.01,2013-12-26 03:44:00,
2013-12-25 22:49:00,26.6,16.1,30.37,SE,139,4.0,7.0,64,0.00,,CLR,0.00,VWS V13.01,2013-12-26 03:49:00,
2013-12-25 22:54:00,26.4,15.9,30.37,ESE,112,3.0,9.0,64,0.00,,CLR,0.00,VWS V13.01,2013-12-26 03:54:00,
2013-12-25 23:00:00,26.3,16.1,30.37,SE,143,4.0,10.0,65,0.00,,CLR,0.00,VWS V13.01,2013-12-26 04:00:00,
2013-12-25 23:05:00,26.2,16.1,30.36,SSE,166,2.0,10.0,65,0.00,,CLR,0.00,VWS V13.01,2013-12-26 04:05:00,
2013-12-25 23:10:00,26.0,15.9,30.36,SSE,166,0.0,10.0,65,0.00,,CLR,0.00,VWS V13.01,2013-12-26 04:10:00,
2013-12-25 23:15:00,25.8,15.7,30.36,South,191,2.0,6.0,65,0.00,,CLR,0.00,VWS V13.01,2013-12-26 04:15:00,
2013-12-25 23:20:00,25.7,15.6,30.36,SSW,208,2.0,7.0,65,0.00,,CLR,0.00,VWS V13.01,2013-12-26 04:20:00,
2013-12-25 23:25:00,25.6,15.5,30.36,SSW,199,2.0,7.0,65,0.00,,CLR,0.00,VWS V13.01,2013-12-26 04:25:00,
2013-12-25 23:30:00,25.5,15.4,30.36,SSW,207,0.0,5.0,65,0.00,,CLR,0.00,VWS V13.01,2013-12-26 04:30:00,
2013-12-25 23:35:00,25.3,15.2,30.36,South,188,1.0,5.0,65,0.00,,CLR,0.00,VWS V13.01,2013-12-26 04:35:00,
2013-12-25 23:40:00,25.3,15.2,30.36,South,187,1.0,5.0,65,0.00,,CLR,0.00,VWS V13.01,2013-12-26 04:40:00,
2013-12-25 23:46:00,25.1,15.4,30.36,South,182,4.0,5.0,66,0.00,,CLR,0.00,VWS V13.01,2013-12-26 04:46:00,
2013-12-25 23:51:00,25.1,15.4,30.35,ESE,121,4.0,6.0,66,0.00,,CLR,0.00,VWS V13.01,2013-12-26 04:51:00,
2013-12-25 23:56:00,24.9,15.2,30.36,SSW,205,2.0,6.0,66,0.00,,CLR,0.00,VWS V13.01,2013-12-26 04:56:00,